Weather reports worldwide

Advertisment
Benson, United Kingdom (3658): temperature & dewpoint: 10.06.2019 12:00:00 - 16.06.2019 12:00:00 (BST)Benson, United Kingdom (3658): temperature -20cm & temperature -100cm: 10.06.2019 12:00:00 - 16.06.2019 12:00:00 (BST)Benson, United Kingdom (3658): wind speed & gusts: 10.06.2019 12:00:00 - 16.06.2019 12:00:00 (BST)Benson, United Kingdom (3658): wind direction: 10.06.2019 12:00:00 - 16.06.2019 12:00:00 (BST)Benson, United Kingdom (3658): reduced air pressure: 10.06.2019 12:00:00 - 16.06.2019 12:00:00 (BST)Benson, United Kingdom (3658): visibility: 10.06.2019 12:00:00 - 16.06.2019 12:00:00 (BST)Benson, United Kingdom (3658): precipitation: 10.06.2019 12:00:00 - 16.06.2019 12:00:00 (BST)
Date & Time tt [°C] td [°C] tt -20cm [°C] tt -100cm [°C] ff [km/h] ff [kn] fx [km/h] fx [kn] dd ppp [hPa] vv [km] rr [mm]
16.06.2019 12:00:00 16,3 12,6 - - 21 11 - - SSW 1015,4 35 -
16.06.2019 11:00:00 17,0 12,1 - - 22 12 - - S 1015,1 30 0,0
16.06.2019 10:00:00 14,8 12,8 13,5 13,0 21 11 - - S 1015,2 10 0,2
16.06.2019 09:00:00 13,5 12,5 - - 18 10 - - SSE 1015,2 27 0,0
16.06.2019 08:00:00 12,8 11,8 - - 16 9 - - S 1015,1 10 0,0
16.06.2019 07:00:00 11,6 10,9 - - 15 8 - - S 1015,0 11 0,0
16.06.2019 06:00:00 10,9 10,4 - - 13 7 - - SSE 1014,9 12 0,0
16.06.2019 05:00:00 9,5 9,1 - - 9 5 - - SSE 1014,9 10 0,0
16.06.2019 04:00:00 9,6 9,5 - - 13 7 - - SSE 1015,0 10 0,0
16.06.2019 03:00:00 7,3 6,7 - - 8 4 - - S 1015,1 12 0,0
16.06.2019 02:00:00 8,7 7,7 - - 13 7 - - SSE 1014,8 25 0,0
16.06.2019 01:00:00 8,3 7,0 - - 9 5 - - SSE 1014,8 27 0,0
16.06.2019 00:00:00 8,3 7,5 - - 5 3 - - SSE 1014,5 35 0,0
15.06.2019 23:00:00 7,9 6,2 - - 2 1 - - SSE 1014,2 10 0,0
15.06.2019 22:00:00 10,0 7,5 - - 9 5 - - SSE 1013,6 35 0,0
15.06.2019 21:00:00 13,3 8,6 - - 9 5 - - W 1013,1 10 0,0
15.06.2019 20:00:00 15,8 6,4 - - 21 11 - - SSW 1012,5 35 0,0
15.06.2019 19:00:00 17,4 8,8 - - 22 12 - - SSW 1012,0 35 0,0
15.06.2019 18:00:00 17,1 10,1 - - 28 15 48 26 S 1011,8 30 0,0
15.06.2019 17:00:00 17,5 11,1 - - 29 16 48 26 S 1011,7 10 0,0
15.06.2019 16:00:00 16,7 12,7 - - 28 15 52 28 S 1011,8 10 0,0
15.06.2019 15:00:00 15,7 11,8 - - 29 16 46 25 S 1012,1 10 0,0
15.06.2019 14:00:00 16,2 11,9 - - 31 17 - - S 1012,1 10 0,0
15.06.2019 13:00:00 15,2 10,6 - - 26 14 - - S 1012,3 10 0,0
15.06.2019 12:00:00 16,0 9,2 - - 24 13 - - SSW 1011,8 10 0,0
15.06.2019 11:00:00 16,0 9,5 - - 26 14 - - S 1011,6 10 0,0
15.06.2019 10:00:00 15,9 10,7 13,7 13,0 24 13 - - S 1011,7 10 0,0
15.06.2019 09:00:00 16,0 10,8 - - 31 17 - - S 1011,5 10 0,0
15.06.2019 08:00:00 14,1 11,5 - - 22 12 - - S 1011,5 10 0,0
15.06.2019 07:00:00 12,3 10,4 - - 13 7 - - SSE 1011,6 10 0,0
15.06.2019 06:00:00 10,7 10,0 - - 9 5 - - SSE 1011,6 35 0,0
15.06.2019 05:00:00 9,7 9,0 - - 11 6 - - S 1011,6 10 0,0
15.06.2019 04:00:00 10,4 9,7 - - 13 7 - - S 1011,4 23 0,0
15.06.2019 03:00:00 11,2 10,1 - - 13 7 - - S 1011,7 20 0,0
15.06.2019 02:00:00 11,0 10,0 - - 13 7 - - S 1011,9 10 0,0
15.06.2019 01:00:00 9,4 8,6 - - 15 8 - - S 1011,9 25 0,0
15.06.2019 00:00:00 9,1 7,7 - - 9 5 - - S 1012,0 30 0,0
14.06.2019 23:00:00 11,0 9,1 - - 13 7 - - SSE 1011,6 35 0,0
14.06.2019 22:00:00 11,5 8,1 - - 15 8 - - S 1011,6 30 0,0
14.06.2019 21:00:00 14,0 8,6 - - 18 10 - - S 1010,9 10 0,0
14.06.2019 20:00:00 15,6 8,9 - - 21 11 - - S 1010,6 10 0,0
14.06.2019 19:00:00 16,6 9,4 - - 21 11 - - S 1010,3 30 0,0
14.06.2019 18:00:00 16,5 9,4 - - 28 15 - - SSW 1010,1 35 0,0
14.06.2019 17:00:00 16,8 10,1 - - 26 14 46 25 S 1010,1 10 0,0
14.06.2019 16:00:00 18,0 11,2 - - 31 17 48 26 S 1010,0 10 0,0
14.06.2019 15:00:00 18,4 10,8 - - 31 17 50 27 S 1009,7 10 0,0
14.06.2019 14:00:00 18,4 10,7 - - 31 17 48 26 S 1009,3 10 0,0
14.06.2019 13:00:00 16,4 11,1 - - 26 14 - - S 1009,3 10 0,0
14.06.2019 12:00:00 15,2 11,5 - - 26 14 - - SSW 1009,6 10 0,0
14.06.2019 11:00:00 15,9 11,7 - - 28 15 - - S 1009,2 10 0,0
14.06.2019 10:00:00 13,8 11,4 13,2 13,0 21 11 - - S 1009,1 10 0,0
14.06.2019 09:00:00 13,1 11,5 - - 21 11 - - S 1008,8 10 0,0
14.06.2019 08:00:00 13,0 11,5 - - 28 15 - - S 1008,2 10 0,0
14.06.2019 07:00:00 12,3 11,7 - - 24 13 - - S 1007,9 10 0,2
14.06.2019 06:00:00 11,9 11,2 - - 18 10 - - S 1007,9 26 0,2
14.06.2019 05:00:00 11,6 11,2 - - 15 8 - - S 1007,7 17 0,8
14.06.2019 04:00:00 11,5 11,2 - - 9 5 - - S 1007,6 7 1,2
14.06.2019 03:00:00 11,3 10,7 - - 11 6 - - S 1007,7 8 0,6
14.06.2019 02:00:00 10,9 10,1 - - 11 6 - - S 1008,0 30 0,0
14.06.2019 01:00:00 10,8 10,0 - - 13 7 - - S 1008,1 10 0,0
14.06.2019 00:00:00 10,9 10,0 - - 9 5 - - S 1007,9 10 0,0
13.06.2019 23:00:00 11,5 10,3 - - 11 6 - - S 1007,9 10 0,0
13.06.2019 22:00:00 12,3 10,9 - - 11 6 - - S 1007,3 10 0,0
13.06.2019 21:00:00 12,9 11,4 - - 11 6 - - SSW 1006,3 10 0,0
13.06.2019 20:00:00 13,4 11,1 - - 16 9 - - SW 1005,5 10 0,0
13.06.2019 19:00:00 13,7 11,3 - - 22 12 - - SSW 1004,8 10 0,0
13.06.2019 18:00:00 13,6 11,3 - - 24 13 - - S 1004,4 10 0,0
13.06.2019 17:00:00 13,7 11,0 - - 26 14 - - SSW 1004,3 10 0,0
13.06.2019 16:00:00 12,8 11,7 - - 21 11 - - SSW 1004,4 10 0,0
13.06.2019 15:00:00 12,9 11,3 - - 24 13 - - S 1004,3 7 0,0
13.06.2019 14:00:00 13,0 11,1 - - 24 13 - - S 1004,3 10 0,2
13.06.2019 13:00:00 12,7 11,1 - - 21 11 - - SSW 1004,3 10 0,6
13.06.2019 12:00:00 12,9 10,3 - - 22 12 - - SSW 1004,3 10 0,2
13.06.2019 11:00:00 12,7 10,6 - - 18 10 - - SSW 1004,2 10 0,4
13.06.2019 10:00:00 12,5 10,3 13,5 13,2 16 9 - - SSW 1004,1 10 0,0
13.06.2019 09:00:00 12,0 10,4 - - 21 11 - - S 1004,0 10 0,2
13.06.2019 08:00:00 11,4 10,3 - - 22 12 - - S 1003,9 10 0,0
13.06.2019 07:00:00 11,0 10,3 - - 18 10 - - S 1004,1 10 0,2
13.06.2019 06:00:00 10,5 9,8 - - 13 7 - - S 1004,5 10 0,2
13.06.2019 05:00:00 10,6 9,8 - - 15 8 - - SSW 1004,7 12 0,2
13.06.2019 04:00:00 10,6 10,2 - - 15 8 - - S 1004,7 9 0,4
13.06.2019 03:00:00 10,7 10,3 - - 11 6 - - SSW 1005,3 8 0,2
13.06.2019 02:00:00 10,5 10,2 - - 9 5 - - S 1005,9 10 0,8
13.06.2019 01:00:00 10,5 10,2 - - 11 6 - - S 1006,5 10 0,4
13.06.2019 00:00:00 10,6 10,3 - - 9 5 - - S 1007,2 10 0,6
12.06.2019 23:00:00 11,0 10,5 - - 8 4 - - SSW 1007,7 10 0,0
12.06.2019 22:00:00 11,3 10,7 - - 5 3 - - SSW 1008,0 10 0,4
12.06.2019 21:00:00 12,0 11,3 - - 2 1 - - SW 1008,1 10 0,4
12.06.2019 20:00:00 12,5 11,5 - - 4 2 - - SW 1008,0 10 0,2
12.06.2019 19:00:00 12,5 10,6 - - 2 1 - - W 1008,2 10 0,4
12.06.2019 18:00:00 12,8 11,2 - - 4 2 - - NNW 1008,7 10 0,6
12.06.2019 17:00:00 12,9 11,0 - - 2 1 - - NNW 1009,2 10 1,0
12.06.2019 16:00:00 13,0 10,8 - - 4 2 - - NNE 1009,6 10 0,4
12.06.2019 15:00:00 13,7 9,8 - - 9 5 - - NNW 1009,5 10 0,0
12.06.2019 14:00:00 14,5 10,1 - - 8 4 - - N 1009,7 10 0,0
12.06.2019 13:00:00 13,5 9,9 - - 9 5 - - NNW 1010,0 10 0,0
12.06.2019 12:00:00 13,3 9,6 - - 11 6 - - NNW 1010,3 10 0,0
12.06.2019 11:00:00 12,7 9,8 - - 11 6 - - NNW 1010,3 10 0,0
12.06.2019 10:00:00 11,6 9,7 13,2 13,2 5 3 - - NW 1010,4 10 0,0
12.06.2019 09:00:00 10,6 9,4 - - 8 4 - - NNE 1010,8 10 0,0
12.06.2019 08:00:00 10,4 9,5 - - 11 6 - - NNE 1011,0 10 0,0
12.06.2019 07:00:00 9,9 9,4 - - 11 6 - - N 1011,1 10 0,0
12.06.2019 06:00:00 9,6 9,2 - - 8 4 - - NNW 1011,1 10 0,0
12.06.2019 05:00:00 9,4 9,1 - - 13 7 - - N 1011,2 35 0,0
12.06.2019 04:00:00 9,4 9,1 - - 13 7 - - N 1011,5 10 0,0
12.06.2019 03:00:00 9,5 9,2 - - 15 8 - - N 1012,3 3,9 0,0
12.06.2019 02:00:00 9,5 9,1 - - 16 9 - - N 1012,6 6 0,0
12.06.2019 01:00:00 9,6 9,2 - - 11 6 - - N 1013,1 7 0,2
12.06.2019 00:00:00 9,6 9,3 - - 15 8 - - N 1013,6 5 0,2
11.06.2019 23:00:00 9,5 9,1 - - 13 7 - - N 1013,9 3,7 0,2
11.06.2019 22:00:00 9,7 9,2 - - 15 8 - - N 1014,2 5 0,0
11.06.2019 21:00:00 9,9 9,0 - - 18 10 - - N 1014,1 10 0,0
11.06.2019 20:00:00 10,3 9,3 - - 21 11 - - N 1013,7 10 0,0
11.06.2019 19:00:00 10,6 9,7 - - 22 12 - - N 1013,4 10 0,0
11.06.2019 18:00:00 10,9 9,9 - - 22 12 - - N 1013,4 9 0,0
11.06.2019 17:00:00 11,5 10,0 - - 24 13 - - NNE 1013,6 10 0,0
11.06.2019 16:00:00 12,3 10,6 - - 24 13 - - NNE 1013,4 10 0,0
11.06.2019 15:00:00 11,9 10,8 - - 26 14 - - NNE 1013,4 10 0,2
11.06.2019 14:00:00 11,3 10,4 - - 21 11 - - N 1013,3 10 0,0
11.06.2019 13:00:00 11,7 11,0 - - 22 12 - - NNE 1012,9 8 0,0
11.06.2019 12:00:00 12,0 11,4 - - 16 9 - - NNE 1012,6 7 0,4
11.06.2019 11:00:00 11,8 11,0 - - 21 11 - - NNE 1012,3 10 0,0
11.06.2019 10:00:00 11,4 10,7 13,4 13,2 21 11 - - NNE 1012,0 10 0,0
11.06.2019 09:00:00 10,8 10,2 - - 21 11 - - NNE 1011,9 10 0,2
11.06.2019 08:00:00 10,7 9,8 - - 26 14 - - NNE 1011,5 10 0,2
11.06.2019 07:00:00 10,5 9,8 - - 22 12 - - NNE 1011,0 8 0,0
11.06.2019 06:00:00 10,3 9,7 - - 22 12 - - NNE 1010,6 10 0,2
11.06.2019 05:00:00 10,4 10,0 - - 22 12 - - NNE 1010,1 7 0,4
11.06.2019 04:00:00 10,1 9,5 - - 26 14 - - N 1010,1 4,6 0,2
11.06.2019 03:00:00 10,1 9,4 - - 21 11 - - N 1010,5 10 0,2
11.06.2019 02:00:00 10,1 9,6 - - 18 10 - - N 1010,8 11 3,4
11.06.2019 01:00:00 9,8 9,3 - - 18 10 - - N 1011,3 3,7 4,2
11.06.2019 00:00:00 9,8 9,2 - - 22 12 - - N 1011,9 4,0 2,0
10.06.2019 23:00:00 9,7 9,0 - - 26 14 - - N 1012,2 8 3,4
10.06.2019 22:00:00 10,4 9,6 - - 24 13 - - N 1012,3 10 0,0
10.06.2019 21:00:00 9,8 9,3 - - 18 10 - - N 1012,3 10 0,4
10.06.2019 20:00:00 9,1 8,7 - - 21 11 - - N 1012,6 3,5 1,4
10.06.2019 19:00:00 9,1 8,5 - - 21 11 - - N 1013,2 6 3,6
10.06.2019 18:00:00 9,3 8,7 - - 15 8 - - NNW 1014,1 8 2,0
10.06.2019 17:00:00 9,7 8,8 - - 15 8 - - NNE 1014,7 10 1,4
10.06.2019 16:00:00 10,7 9,5 - - 21 11 - - NNE 1014,5 10 1,0
10.06.2019 15:00:00 11,0 10,0 - - 16 9 - - NNE 1014,6 10 2,8
10.06.2019 14:00:00 11,5 10,1 - - 11 6 - - NNE 1014,8 8 0,6
10.06.2019 13:00:00 12,4 9,6 - - 13 7 - - N 1015,2 10 0,0
10.06.2019 12:00:00 12,8 10,7 - - 15 8 - - N 1015,8 10 0,4

tt = temperature
td = dewpoint
tt -20cm = temperature -20cm
tt -100cm = temperature -100cm
ff = wind speed
fx = gusts
dd = wind direction
ppp = reduced air pressure
vv = visibility
rr = precipitation

Next stations